datetime,flow
1920-10-01,34.2
1920-10-02,34.2
1920-10-03,34.2
1920-10-04,34.2
1920-10-05,34.2
1920-10-06,34.2
1920-10-07,34.2
1920-10-08,34.2
1920-10-09,34.2
1920-10-10,34.2
1920-10-11,34.2
1920-10-12,34.2
1920-10-13,34.2
1920-10-14,34.2
1920-10-15,34.2
1920-10-16,34.2
1920-10-17,34.2
1920-10-18,34.2
1920-10-19,34.2
1920-10-20,34.2
1920-10-21,34.2
1920-10-22,34.2
1920-10-23,34.2
1920-10-24,34.2
1920-10-25,34.2
1920-10-26,34.2
1920-10-27,34.2
1920-10-28,34.2
1920-10-29,34.2
1920-10-30,34.2
1920-10-31,34.2
1920-11-01,37.7
1920-11-02,37.7
1920-11-03,37.7
1920-11-04,37.7
1920-11-05,37.7
1920-11-06,37.7
1920-11-07,37.7
1920-11-08,37.7
1920-11-09,37.7
1920-11-10,37.7
1920-11-11,37.7
1920-11-12,37.7
1920-11-13,37.7
1920-11-14,37.7
1920-11-15,37.7
1920-11-16,37.7
1920-11-17,37.7
1920-11-18,37.7
1920-11-19,37.7
1920-11-20,37.7
1920-11-21,37.7
1920-11-22,37.7
1920-11-23,37.7
1920-11-24,37.7
1920-11-25,37.7
1920-11-26,37.7
1920-11-27,37.7
1920-11-28,37.7
1920-11-29,37.7
1920-11-30,37.7
1920-12-01,35.0
1920-12-02,35.0
1920-12-03,35.0
1920-12-04,35.0
1920-12-05,35.0
1920-12-06,35.0
1920-12-07,35.0
1920-12-08,35.0
1920-12-09,35.0
1920-12-10,35.0
1920-12-11,35.0
1920-12-12,35.0
1920-12-13,35.0
1920-12-14,35.0
1920-12-15,35.0
1920-12-16,35.0
1920-12-17,35.0
1920-12-18,35.0
1920-12-19,35.0
1920-12-20,35.0
1920-12-21,35.0
1920-12-22,35.0
1920-12-23,35.0
1920-12-24,35.0
1920-12-25,35.0
1920-12-26,35.0
1920-12-27,35.0
1920-12-28,35.0
1920-12-29,35.0
1920-12-30,35.0
1920-12-31,35.0
1921-01-01,30.0
1921-01-02,30.0
1921-01-03,30.0
1921-01-04,30.0
1921-01-05,30.0
1921-01-06,30.0
1921-01-07,30.0
1921-01-08,30.0
1921-01-09,30.0
1921-01-10,30.0
1921-01-11,30.0
1921-01-12,30.0
1921-01-13,30.0
1921-01-14,30.0
1921-01-15,30.0
1921-01-16,30.0
1921-01-17,30.0
1921-01-18,30.0
1921-01-19,30.0
1921-01-20,30.0
1921-01-21,30.0
1921-01-22,30.0
1921-01-23,30.0
1921-01-24,30.0
1921-01-25,30.0
1921-01-26,30.0
1921-01-27,30.0
1921-01-28,30.0
1921-01-29,30.0
1921-01-30,30.0
1921-01-31,30.0
1921-02-01,35.0
1921-02-02,35.0
1921-02-03,35.0
1921-02-04,35.0
1921-02-05,35.0
1921-02-06,35.0
1921-02-07,35.0
1921-02-08,35.0
1921-02-09,35.0
1921-02-10,35.0
1921-02-11,35.0
1921-02-12,35.0
1921-02-13,35.0
1921-02-14,35.0
1921-02-15,35.0
1921-02-16,35.0
1921-02-17,35.0
1921-02-18,35.0
1921-02-19,35.0
1921-02-20,35.0
1921-02-21,35.0
1921-02-22,35.0
1921-02-23,35.0
1921-02-24,35.0
1921-02-25,35.0
1921-02-26,35.0
1921-02-27,35.0
1921-02-28,35.0
1921-03-01,35.0
1921-03-02,40.0
1921-03-03,45.0
1921-03-04,50.0
1921-03-05,55.0
1921-03-06,55.0
1921-03-07,60.0
1921-03-08,60.0
1921-03-09,65.0
1921-03-10,70.0
1921-03-11,72.0
1921-03-12,73.0
1921-03-13,68.0
1921-03-14,71.0
1921-03-15,76.0
1921-03-16,74.0
1921-03-17,92.0
1921-03-18,140.0
1921-03-19,156.0
1921-03-20,146.0
1921-03-21,156.0
1921-03-22,178.0
1921-03-23,220.0
1921-03-24,241.0
1921-03-25,241.0
1921-03-26,189.0
1921-03-27,125.0
1921-03-28,148.0
1921-03-29,156.0
1921-03-30,170.0
1921-03-31,183.0
1921-04-01,111.0
1921-04-02,265.0
1921-04-03,345.0
1921-04-04,310.0
1921-04-05,216.0
1921-04-06,198.0
1921-04-07,200.0
1921-04-08,165.0
1921-04-09,148.0
1921-04-10,232.0
1921-04-11,332.0
1921-04-12,430.0
1921-04-13,287.0
1921-04-14,284.0
1921-04-15,280.0
1921-04-16,255.0
1921-04-17,243.0
1921-04-18,255.0
1921-04-19,318.0
1921-04-20,446.0
1921-04-21,415.0
1921-04-22,495.0
1921-04-23,665.0
1921-04-24,665.0
1921-04-25,530.0
1921-04-26,446.0
1921-04-27,400.0
1921-04-28,400.0
1921-04-29,430.0
1921-04-30,585.0
1921-05-01,815.0
1921-05-02,1040.0
1921-05-03,995.0
1921-05-04,950.0
1921-05-05,928.0
1921-05-06,882.0
1921-05-07,770.0
1921-05-08,645.0
1921-05-09,530.0
1921-05-10,512.0
1921-05-11,512.0
1921-05-12,770.0
1921-05-13,725.0
1921-05-14,725.0
1921-05-15,815.0
1921-05-16,972.0
1921-05-17,950.0
1921-05-18,1020.0
1921-05-19,950.0
1921-05-20,882.0
1921-05-21,928.0
1921-05-22,950.0
1921-05-23,905.0
1921-05-24,1040.0
1921-05-25,1060.0
1921-05-26,1020.0
1921-05-27,1040.0
1921-05-28,1450.0
1921-05-29,1340.0
1921-05-30,1240.0
1921-05-31,1160.0
1921-06-01,1090.0
1921-06-02,1020.0
1921-06-03,1160.0
1921-06-04,1110.0
1921-06-05,1240.0
1921-06-06,936.0
1921-06-07,1020.0
1921-06-08,1180.0
1921-06-09,1280.0
1921-06-10,1240.0
1921-06-11,1280.0
1921-06-12,1140.0
1921-06-13,1130.0
1921-06-14,1100.0
1921-06-15,959.0
1921-06-16,846.0
1921-06-17,705.0
1921-06-18,689.0
1921-06-19,633.0
1921-06-20,537.0
1921-06-21,478.0
1921-06-22,469.0
1921-06-23,502.0
1921-06-24,502.0
1921-06-25,462.0
1921-06-26,292.0
1921-06-27,255.0
1921-06-28,226.0
1921-06-29,280.0
1921-06-30,332.0
1921-07-01,318.0
1921-07-02,305.0
1921-07-03,267.0
1921-07-04,305.0
1921-07-05,232.0
1921-07-06,192.0
1921-07-07,174.0
1921-07-08,156.0
1921-07-09,156.0
1921-07-10,148.0
1921-07-11,140.0
1921-07-12,140.0
1921-07-13,133.0
1921-07-14,140.0
1921-07-15,148.0
1921-07-16,156.0
1921-07-17,140.0
1921-07-18,133.0
1921-07-19,126.0
1921-07-20,148.0
1921-07-21,146.0
1921-07-22,145.0
1921-07-23,144.0
1921-07-24,142.0
1921-07-25,140.0
1921-07-26,148.0
1921-07-27,133.0
1921-07-28,126.0
1921-07-29,120.0
1921-07-30,133.0
1921-07-31,114.0
1921-08-01,101.0
1921-08-02,120.0
1921-08-03,101.0
1921-08-04,90.0
1921-08-05,84.0
1921-08-06,79.0
1921-08-07,79.0
1921-08-08,74.0
1921-08-09,79.0
1921-08-10,101.0
1921-08-11,79.0
1921-08-12,79.0
1921-08-13,69.0
1921-08-14,69.0
1921-08-15,84.0
1921-08-16,69.0
1921-08-17,61.0
1921-08-18,65.0
1921-08-19,79.0
1921-08-20,79.0
1921-08-21,120.0
1921-08-22,232.0
1921-08-23,243.0
1921-08-24,202.0
1921-08-25,318.0
1921-08-26,212.0
1921-08-27,192.0
1921-08-28,212.0
1921-08-29,165.0
1921-08-30,148.0
1921-08-31,192.0
1921-09-01,165.0
1921-09-02,140.0
1921-09-03,126.0
1921-09-04,114.0
1921-09-05,101.0
1921-09-06,90.0
1921-09-07,84.0
1921-09-08,79.0
1921-09-09,74.0
1921-09-10,69.0
1921-09-11,69.0
1921-09-12,65.0
1921-09-13,61.0
1921-09-14,57.0
1921-09-15,61.0
1921-09-16,61.0
1921-09-17,57.0
1921-09-18,57.0
1921-09-19,57.0
1921-09-20,54.0
1921-09-21,50.0
1921-09-22,50.0
1921-09-23,48.0
1921-09-24,48.0
1921-09-25,45.0
1921-09-26,45.0
1921-09-27,45.0
1921-09-28,45.0
1921-09-29,45.0
1921-09-30,43.0
1921-10-01,45.0
1921-10-02,54.0
1921-10-03,45.0
1921-10-04,45.0
1921-10-05,43.0
1921-10-06,43.0
1921-10-07,43.0
1921-10-08,41.0
1921-10-09,41.0
1921-10-10,41.0
1921-10-11,41.0
1921-10-12,39.0
1921-10-13,39.0
1921-10-14,39.0
1921-10-15,39.0
1921-10-16,39.0
1921-10-17,39.0
1921-10-18,39.0
1921-10-19,39.0
1921-10-20,37.0
1921-10-21,37.0
1921-10-22,37.0
1921-10-23,37.0
1921-10-24,41.0
1921-10-25,41.0
1921-10-26,39.0
1921-10-27,37.0
1921-10-28,37.0
1921-10-29,37.0
1921-10-30,37.0
1921-10-31,37.0
1921-11-01,35.0
1921-11-02,35.0
1921-11-03,35.0
1921-11-04,35.0
1921-11-05,35.0
1921-11-06,35.0
1921-11-07,35.0
1921-11-08,35.0
1921-11-09,35.0
1921-11-10,35.0
1921-11-11,35.0
1921-11-12,35.0
1921-11-13,35.0
1921-11-14,35.0
1921-11-15,35.0
1921-11-16,35.0
1921-11-17,35.0
1921-11-18,35.0
1921-11-19,35.0
1921-11-20,35.0
1921-11-21,35.0
1921-11-22,35.0
1921-11-23,35.0
1921-11-24,35.0
1921-11-25,35.0
1921-11-26,35.0
1921-11-27,35.0
1921-11-28,35.0
1921-11-29,35.0
1921-11-30,35.0
1921-12-01,33.0
1921-12-02,33.0
1921-12-03,33.0
1921-12-04,33.0
1921-12-05,33.0
1921-12-06,33.0
1921-12-07,33.0
1921-12-08,33.0
1921-12-09,33.0
1921-12-10,33.0
1921-12-11,33.0
1921-12-12,33.0
1921-12-13,33.0
1921-12-14,33.0
1921-12-15,33.0
1921-12-16,33.0
1921-12-17,33.0
1921-12-18,33.0
1921-12-19,33.0
1921-12-20,33.0
1921-12-21,33.0
1921-12-22,33.0
1921-12-23,33.0
1921-12-24,33.0
1921-12-25,33.0
1921-12-26,33.0
1921-12-27,33.0
1921-12-28,33.0
1921-12-29,33.0
1921-12-30,33.0
1921-12-31,33.0
1922-01-01,30.0
1922-01-02,30.0
1922-01-03,30.0
1922-01-04,30.0
1922-01-05,30.0
1922-01-06,30.0
1922-01-07,30.0
1922-01-08,30.0
1922-01-09,30.0
1922-01-10,30.0
1922-01-11,30.0
1922-01-12,30.0
1922-01-13,30.0
1922-01-14,30.0
1922-01-15,30.0
1922-01-16,30.0
1922-01-17,30.0
1922-01-18,30.0
1922-01-19,30.0
1922-01-20,30.0
1922-01-21,30.0
1922-01-22,30.0
1922-01-23,30.0
1922-01-24,30.0
1922-01-25,30.0
1922-01-26,30.0
1922-01-27,30.0
1922-01-28,30.0
1922-01-29,30.0
1922-01-30,30.0
1922-01-31,30.0
1922-02-01,30.0
1922-02-02,30.0
1922-02-03,30.0
1922-02-04,30.0
1922-02-05,30.0
1922-02-06,30.0
1922-02-07,30.0
1922-02-08,30.0
1922-02-09,30.0
1922-02-10,30.0
1922-02-11,30.0
1922-02-12,30.0
1922-02-13,30.0
1922-02-14,30.0
1922-02-15,30.0
1922-02-16,30.0
1922-02-17,30.0
1922-02-18,30.0
1922-02-19,30.0
1922-02-20,30.0
1922-02-21,30.0
1922-02-22,30.0
1922-02-23,30.0
1922-02-24,30.0
1922-02-25,30.0
1922-02-26,30.0
1922-02-27,30.0
1922-02-28,30.0
1922-03-01,33.0
1922-03-02,33.0
1922-03-03,33.0
1922-03-04,34.0
1922-03-05,33.0
1922-03-06,32.0
1922-03-07,33.0
1922-03-08,37.0
1922-03-09,33.0
1922-03-10,34.0
1922-03-11,33.0
1922-03-12,32.0
1922-03-13,32.0
1922-03-14,35.0
1922-03-15,36.0
1922-03-16,36.0
1922-03-17,35.0
1922-03-18,36.0
1922-03-19,35.0
1922-03-20,39.0
1922-03-21,48.0
1922-03-22,65.0
1922-03-23,100.0
1922-03-24,111.0
1922-03-25,94.0
1922-03-26,110.0
1922-03-27,111.0
1922-03-28,94.0
1922-03-29,74.0
1922-03-30,69.0
1922-03-31,69.0
1922-04-01,69.0
1922-04-02,66.0
1922-04-03,65.0
1922-04-04,72.0
1922-04-05,112.0
1922-04-06,148.0
1922-04-07,118.0
1922-04-08,106.0
1922-04-09,96.0
1922-04-10,90.0
1922-04-11,79.0
1922-04-12,80.0
1922-04-13,85.0
1922-04-14,91.0
1922-04-15,112.0
1922-04-16,104.0
1922-04-17,97.0
1922-04-18,126.0
1922-04-19,310.0
1922-04-20,532.0
1922-04-21,728.0
1922-04-22,707.0
1922-04-23,623.0
1922-04-24,583.0
1922-04-25,564.0
1922-04-26,546.0
1922-04-27,602.0
1922-04-28,631.0
1922-04-29,792.0
1922-04-30,902.0
1922-05-01,1040.0
1922-05-02,1060.0
1922-05-03,1080.0
1922-05-04,1100.0
1922-05-05,1210.0
1922-05-06,1100.0
1922-05-07,1030.0
1922-05-08,880.0
1922-05-09,711.0
1922-05-10,475.0
1922-05-11,360.0
1922-05-12,287.0
1922-05-13,320.0
1922-05-14,412.0
1922-05-15,511.0
1922-05-16,518.0
1922-05-17,663.0
1922-05-18,889.0
1922-05-19,943.0
1922-05-20,876.0
1922-05-21,939.0
1922-05-22,966.0
1922-05-23,1040.0
1922-05-24,1080.0
1922-05-25,1110.0
1922-05-26,1140.0
1922-05-27,1140.0
1922-05-28,1120.0
1922-05-29,1090.0
1922-05-30,1060.0
1922-05-31,966.0
1922-06-01,827.0
1922-06-02,749.0
1922-06-03,619.0
1922-06-04,661.0
1922-06-05,762.0
1922-06-06,823.0
1922-06-07,854.0
1922-06-08,1000.0
1922-06-09,1000.0
1922-06-10,955.0
1922-06-11,862.0
1922-06-12,827.0
1922-06-13,801.0
1922-06-14,677.0
1922-06-15,602.0
1922-06-16,578.0
1922-06-17,564.0
1922-06-18,567.0
1922-06-19,530.0
1922-06-20,494.0
1922-06-21,470.0
1922-06-22,437.0
1922-06-23,383.0
1922-06-24,350.0
1922-06-25,316.0
1922-06-26,303.0
1922-06-27,279.0
1922-06-28,260.0
1922-06-29,240.0
1922-06-30,225.0
1922-07-01,209.0
1922-07-02,196.0
1922-07-03,182.0
1922-07-04,180.0
1922-07-05,180.0
1922-07-06,170.0
1922-07-07,156.0
1922-07-08,142.0
1922-07-09,134.0
1922-07-10,128.0
1922-07-11,118.0
1922-07-12,102.0
1922-07-13,94.0
1922-07-14,90.0
1922-07-15,85.0
1922-07-16,85.0
1922-07-17,84.0
1922-07-18,85.0
1922-07-19,88.0
1922-07-20,90.0
1922-07-21,83.0
1922-07-22,78.0
1922-07-23,71.0
1922-07-24,67.0
1922-07-25,62.0
1922-07-26,50.0
1922-07-27,64.0
1922-07-28,70.0
1922-07-29,71.0
1922-07-30,65.0
1922-07-31,92.0
1922-08-01,74.0
1922-08-02,83.0
1922-08-03,69.0
1922-08-04,62.0
1922-08-05,47.0
1922-08-06,59.0
1922-08-07,44.0
1922-08-08,36.0
1922-08-09,44.0
1922-08-10,41.0
1922-08-11,40.0
1922-08-12,40.0
1922-08-13,40.0
1922-08-14,40.0
1922-08-15,40.0
1922-08-16,42.0
1922-08-17,42.0
1922-08-18,44.0
1922-08-19,44.0
1922-08-20,42.0
1922-08-21,40.0
1922-08-22,38.0
1922-08-23,38.0
1922-08-24,38.0
1922-08-25,38.0
1922-08-26,36.0
1922-08-27,36.0
1922-08-28,36.0
1922-08-29,36.0
1922-08-30,36.0
1922-08-31,38.0
1922-09-01,38.0
1922-09-02,38.0
1922-09-03,38.0
1922-09-04,38.0
1922-09-05,38.0
1922-09-06,36.0
1922-09-07,36.0
1922-09-08,36.0
1922-09-09,36.0
1922-09-10,36.0
1922-09-11,36.0
1922-09-12,36.0
1922-09-13,36.0
1922-09-14,36.0
1922-09-15,36.0
1922-09-16,39.0
1922-09-17,39.0
1922-09-18,36.0
1922-09-19,36.0
1922-09-20,36.0
1922-09-21,36.0
1922-09-22,33.0
1922-09-23,33.0
1922-09-24,33.0
1922-09-25,33.0
1922-09-26,30.0
1922-09-27,30.0
1922-09-28,30.0
1922-09-29,30.0
1922-09-30,30.0
1922-10-01,30.0
1922-10-02,30.0
1922-10-03,30.0
1922-10-04,30.0
1922-10-05,30.0
1922-10-06,30.0
1922-10-07,30.0
1922-10-08,30.0
1922-10-09,30.0
1922-10-10,30.0
1922-10-11,30.0
1922-10-12,30.0
1922-10-13,30.0
1922-10-14,30.0
1922-10-15,30.0
1922-10-16,30.0
1922-10-17,30.0
1922-10-18,30.0
1922-10-19,30.0
1922-10-20,30.0
1922-10-21,30.0
1922-10-22,30.0
1922-10-23,30.0
1922-10-24,30.0
1922-10-25,30.0
1922-10-26,30.0
1922-10-27,30.0
1922-10-28,30.0
1922-10-29,30.0
1922-10-30,30.0
1922-10-31,30.0
1922-11-01,30.0
1922-11-02,30.0
1922-11-03,30.0
1922-11-04,30.0
1922-11-05,30.0
1922-11-06,30.0
1922-11-07,30.0
1922-11-08,30.0
1922-11-09,30.0
1922-11-10,30.0
1922-11-11,30.0
1922-11-12,30.0
1922-11-13,30.0
1922-11-14,30.0
1922-11-15,30.0
1922-11-16,30.0
1922-11-17,30.0
1922-11-18,30.0
1922-11-19,30.0
1922-11-20,30.0
1922-11-21,30.0
1922-11-22,30.0
1922-11-23,30.0
1922-11-24,30.0
1922-11-25,30.0
1922-11-26,30.0
1922-11-27,30.0
1922-11-28,30.0
1922-11-29,30.0
1922-11-30,30.0
1922-12-01,27.0
1922-12-02,27.0
1922-12-03,27.0
1922-12-04,27.0
1922-12-05,27.0
1922-12-06,27.0
1922-12-07,27.0
1922-12-08,27.0
1922-12-09,27.0
1922-12-10,27.0
1922-12-11,27.0
1922-12-12,27.0
1922-12-13,27.0
1922-12-14,27.0
1922-12-15,27.0
1922-12-16,27.0
1922-12-17,27.0
1922-12-18,27.0
1922-12-19,27.0
1922-12-20,27.0
1922-12-21,27.0
1922-12-22,27.0
1922-12-23,27.0
1922-12-24,27.0
1922-12-25,27.0
1922-12-26,27.0
1922-12-27,27.0
1922-12-28,27.0
1922-12-29,27.0
1922-12-30,27.0
1922-12-31,27.0
1923-01-01,25.0
1923-01-02,25.0
1923-01-03,25.0
1923-01-04,25.0
1923-01-05,25.0
1923-01-06,25.0
1923-01-07,25.0
1923-01-08,25.0
1923-01-09,25.0
1923-01-10,25.0
1923-01-11,25.0
1923-01-12,25.0
1923-01-13,25.0
1923-01-14,25.0
1923-01-15,25.0
1923-01-16,25.0
1923-01-17,25.0
1923-01-18,25.0
1923-01-19,25.0
1923-01-20,25.0
1923-01-21,25.0
1923-01-22,25.0
1923-01-23,25.0
1923-01-24,25.0
1923-01-25,25.0
1923-01-26,25.0
1923-01-27,25.0
1923-01-28,25.0
1923-01-29,25.0
1923-01-30,25.0
1923-01-31,25.0
1923-02-01,25.0
1923-02-02,25.0
1923-02-03,25.0
1923-02-04,25.0
1923-02-05,25.0
1923-02-06,25.0
1923-02-07,25.0
1923-02-08,25.0
1923-02-09,25.0
1923-02-10,25.0
1923-02-11,25.0
1923-02-12,25.0
1923-02-13,25.0
1923-02-14,25.0
1923-02-15,25.0
1923-02-16,25.0
1923-02-17,25.0
1923-02-18,25.0
1923-02-19,25.0
1923-02-20,25.0
1923-02-21,25.0
1923-02-22,25.0
1923-02-23,25.0
1923-02-24,25.0
1923-02-25,25.0
1923-02-26,25.0
1923-02-27,25.0
1923-02-28,25.0
1923-03-01,30.0
1923-03-02,30.0
1923-03-03,30.0
1923-03-04,30.0
1923-03-05,30.0
1923-03-06,30.0
1923-03-07,30.0
1923-03-08,30.0
1923-03-09,30.0
1923-03-10,30.0
1923-03-11,30.0
1923-03-12,30.0
1923-03-13,30.0
1923-03-14,30.0
1923-03-15,30.0
1923-03-16,30.0
1923-03-17,30.0
1923-03-18,30.0
1923-03-19,30.0
1923-03-20,30.0
1923-03-21,30.0
1923-03-22,30.0
1923-03-23,30.0
1923-03-24,30.0
1923-03-25,30.0
1923-03-26,30.0
1923-03-27,30.0
1923-03-28,30.0
1923-03-29,30.0
1923-03-30,30.0
1923-03-31,30.0
1923-04-01,220.0
1923-04-02,220.0
1923-04-03,220.0
1923-04-04,220.0
1923-04-05,220.0
1923-04-06,220.0
1923-04-07,220.0
1923-04-08,220.0
1923-04-09,220.0
1923-04-10,220.0
1923-04-11,220.0
1923-04-12,220.0
1923-04-13,220.0
1923-04-14,220.0
1923-04-15,220.0
1923-04-16,220.0
1923-04-17,220.0
1923-04-18,220.0
1923-04-19,220.0
1923-04-20,220.0
1923-04-21,220.0
1923-04-22,220.0
1923-04-23,220.0
1923-04-24,220.0
1923-04-25,220.0
1923-04-26,220.0
1923-04-27,220.0
1923-04-28,220.0
1923-04-29,220.0
1923-04-30,220.0
1923-05-01,447.0
1923-05-02,569.0
1923-05-03,685.0
1923-05-04,707.0
1923-05-05,727.0
1923-05-06,685.0
1923-05-07,691.0
1923-05-08,741.0
1923-05-09,747.0
1923-05-10,727.0
1923-05-11,699.0
1923-05-12,643.0
1923-05-13,548.0
1923-05-14,455.0
1923-05-15,455.0
1923-05-16,468.0
1923-05-17,494.0
1923-05-18,629.0
1923-05-19,770.0
1923-05-20,875.0
1923-05-21,785.0
1923-05-22,756.0
1923-05-23,685.0
1923-05-24,637.0
1923-05-25,756.0
1923-05-26,770.0
1923-05-27,766.0
1923-05-28,707.0
1923-05-29,643.0
1923-05-30,601.0
1923-05-31,615.0
1923-06-01,596.0
1923-06-02,586.0
1923-06-03,579.0
1923-06-04,601.0
1923-06-05,561.0
1923-06-06,643.0
1923-06-07,637.0
1923-06-08,629.0
1923-06-09,596.0
1923-06-10,615.0
1923-06-11,671.0
1923-06-12,574.0
1923-06-13,569.0
1923-06-14,535.0
1923-06-15,522.0
1923-06-16,468.0
1923-06-17,417.0
1923-06-18,369.0
1923-06-19,345.0
1923-06-20,357.0
1923-06-21,297.0
1923-06-22,288.0
1923-06-23,273.0
1923-06-24,266.0
1923-06-25,266.0
1923-06-26,266.0
1923-06-27,253.0
1923-06-28,245.0
1923-06-29,225.0
1923-06-30,206.0
1923-07-01,197.0
1923-07-02,180.0
1923-07-03,172.0
1923-07-04,161.0
1923-07-05,148.0
1923-07-06,133.0
1923-07-07,138.0
1923-07-08,140.0
1923-07-09,148.0
1923-07-10,180.0
1923-07-11,151.0
1923-07-12,138.0
1923-07-13,129.0
1923-07-14,118.0
1923-07-15,126.0
1923-07-16,133.0
1923-07-17,113.0
1923-07-18,100.0
1923-07-19,106.0
1923-07-20,113.0
1923-07-21,109.0
1923-07-22,113.0
1923-07-23,100.0
1923-07-24,89.0
1923-07-25,83.0
1923-07-26,83.0
1923-07-27,106.0
1923-07-28,78.0
1923-07-29,68.0
1923-07-30,64.0
1923-07-31,60.0
1923-08-01,73.0
1923-08-02,64.0
1923-08-03,60.0
1923-08-04,61.0
1923-08-05,58.0
1923-08-06,55.0
1923-08-07,51.0
1923-08-08,47.0
1923-08-09,68.0
1923-08-10,94.0
1923-08-11,94.0
1923-08-12,133.0
1923-08-13,140.0
1923-08-14,126.0
1923-08-15,166.0
1923-08-16,188.0
1923-08-17,200.0
1923-08-18,256.0
1923-08-19,215.0
1923-08-20,183.0
1923-08-21,164.0
1923-08-22,144.0
1923-08-23,126.0
1923-08-24,113.0
1923-08-25,100.0
1923-08-26,78.0
1923-08-27,73.0
1923-08-28,73.0
1923-08-29,71.0
1923-08-30,73.0
1923-08-31,69.0
1923-09-01,68.0
1923-09-02,68.0
1923-09-03,67.0
1923-09-04,64.0
1923-09-05,60.0
1923-09-06,67.0
1923-09-07,55.0
1923-09-08,51.0
1923-09-09,47.0
1923-09-10,44.0
1923-09-11,43.0
1923-09-12,44.0
1923-09-13,45.0
1923-09-14,46.0
1923-09-15,46.0
1923-09-16,47.0
1923-09-17,55.0
1923-09-18,73.0
1923-09-19,68.0
1923-09-20,68.0
1923-09-21,64.0
1923-09-22,58.0
1923-09-23,126.0
1923-09-24,172.0
1923-09-25,119.0
1923-09-26,107.0
1923-09-27,94.0
1923-09-28,88.0
1923-09-29,81.0
1923-09-30,78.0
1923-10-01,70.0
1923-10-02,69.0
1923-10-03,66.0
1923-10-04,62.0
1923-10-05,60.0
1923-10-06,57.0
1923-10-07,55.0
1923-10-08,53.0
1923-10-09,60.0
1923-10-10,57.0
1923-10-11,53.0
1923-10-12,51.0
1923-10-13,51.0
1923-10-14,49.0
1923-10-15,48.0
1923-10-16,47.0
1923-10-17,44.0
1923-10-18,47.0
1923-10-19,49.0
1923-10-20,46.0
1923-10-21,47.0
1923-10-22,37.0
1923-10-23,44.0
1923-10-24,47.0
1923-10-25,44.0
1923-10-26,37.0
1923-10-27,40.0
1923-10-28,33.0
1923-10-29,34.0
1923-10-30,39.0
1923-10-31,44.0
1923-11-01,44.0
1923-11-02,41.0
1923-11-03,40.0
1923-11-04,44.0
1923-11-05,40.0
1923-11-06,40.0
1923-11-07,40.0
1923-11-08,40.0
1923-11-09,39.0
1923-11-10,45.0
1923-11-11,83.0
1923-11-12,64.0
1923-11-13,55.0
1923-11-14,51.0
1923-11-15,51.0
1923-11-16,53.0
1923-11-17,53.0
1923-11-18,51.0
1923-11-19,46.0
1923-11-20,47.0
1923-11-21,44.0
1923-11-22,44.0
1923-11-23,44.0
1923-11-24,44.0
1923-11-25,44.0
1923-11-26,44.0
1923-11-27,42.0
1923-11-28,42.0
1923-11-29,42.0
1923-11-30,40.0
1923-12-01,40.0
1923-12-02,40.0
1923-12-03,40.0
1923-12-04,40.0
1923-12-05,40.0
1923-12-06,40.0
1923-12-07,40.0
1923-12-08,40.0
1923-12-09,40.0
1923-12-10,40.0
1923-12-11,40.0
1923-12-12,40.0
1923-12-13,40.0
1923-12-14,40.0
1923-12-15,40.0
1923-12-16,40.0
1923-12-17,40.0
1923-12-18,40.0
1923-12-19,40.0
1923-12-20,40.0
1923-12-21,40.0
1923-12-22,40.0
1923-12-23,40.0
1923-12-24,40.0
1923-12-25,40.0
1923-12-26,40.0
1923-12-27,40.0
1923-12-28,40.0
1923-12-29,40.0
1923-12-30,40.0
1923-12-31,40.0
1924-01-01,35.0
1924-01-02,35.0
1924-01-03,35.0
1924-01-04,35.0
1924-01-05,35.0
1924-01-06,35.0
1924-01-07,35.0
1924-01-08,35.0
1924-01-09,35.0
1924-01-10,35.0
1924-01-11,35.0
1924-01-12,35.0
1924-01-13,35.0
1924-01-14,35.0
1924-01-15,35.0
1924-01-16,35.0
1924-01-17,35.0
1924-01-18,35.0
1924-01-19,35.0
1924-01-20,35.0
1924-01-21,35.0
1924-01-22,35.0
1924-01-23,35.0
1924-01-24,35.0
1924-01-25,35.0
1924-01-26,35.0
1924-01-27,35.0
1924-01-28,35.0
1924-01-29,35.0
1924-01-30,35.0
1924-01-31,35.0
1924-02-01,35.0
1924-02-02,35.0
1924-02-03,35.0
1924-02-04,35.0
1924-02-05,35.0
1924-02-06,35.0
1924-02-07,35.0
1924-02-08,35.0
1924-02-09,35.0
1924-02-10,35.0
1924-02-11,35.0
1924-02-12,35.0
1924-02-13,35.0
1924-02-14,35.0
1924-02-15,35.0
1924-02-16,35.0
1924-02-17,35.0
1924-02-18,35.0
1924-02-19,35.0
1924-02-20,35.0
1924-02-21,35.0
1924-02-22,35.0
1924-02-23,35.0
1924-02-24,35.0
1924-02-25,35.0
1924-02-26,35.0
1924-02-27,35.0
1924-02-28,35.0
1924-02-29,35.0
1924-03-01,65.0
1924-03-02,70.0
1924-03-03,70.0
1924-03-04,38.0
1924-03-05,38.0
1924-03-06,60.0
1924-03-07,40.0
1924-03-08,40.0
1924-03-09,50.0
1924-03-10,65.0
1924-03-11,55.0
1924-03-12,40.0
1924-03-13,42.0
1924-03-14,38.0
1924-03-15,60.0
1924-03-16,60.0
1924-03-17,50.0
1924-03-18,40.0
1924-03-19,28.0
1924-03-20,40.0
1924-03-21,40.0
1924-03-22,40.0
1924-03-23,37.0
1924-03-24,36.0
1924-03-25,36.0
1924-03-26,44.0
1924-03-27,61.0
1924-03-28,74.0
1924-03-29,64.0
1924-03-30,55.0
1924-03-31,46.0
1924-04-01,53.0
1924-04-02,62.0
1924-04-03,61.0
1924-04-04,89.0
1924-04-05,126.0
1924-04-06,257.0
1924-04-07,427.0
1924-04-08,397.0
1924-04-09,323.0
1924-04-10,287.0
1924-04-11,287.0
1924-04-12,359.0
1924-04-13,463.0
1924-04-14,548.0
1924-04-15,522.0
1924-04-16,348.0
1924-04-17,269.0
1924-04-18,252.0
1924-04-19,333.0
1924-04-20,421.0
1924-04-21,545.0
1924-04-22,651.0
1924-04-23,703.0
1924-04-24,658.0
1924-04-25,505.0
1924-04-26,400.0
1924-04-27,346.0
1924-04-28,305.0
1924-04-29,290.0
1924-04-30,330.0
1924-05-01,400.0
1924-05-02,466.0
1924-05-03,633.0
1924-05-04,675.0
1924-05-05,714.0
1924-05-06,738.0
1924-05-07,728.0
1924-05-08,782.0
1924-05-09,822.0
1924-05-10,908.0
1924-05-11,845.0
1924-05-12,809.0
1924-05-13,871.0
1924-05-14,886.0
1924-05-15,875.0
1924-05-16,902.0
1924-05-17,917.0
1924-05-18,913.0
1924-05-19,951.0
1924-05-20,913.0
1924-05-21,883.0
1924-05-22,864.0
1924-05-23,830.0
1924-05-24,749.0
1924-05-25,675.0
1924-05-26,668.0
1924-05-27,654.0
1924-05-28,572.0
1924-05-29,489.0
1924-05-30,412.0
1924-05-31,362.0
1924-06-01,340.0
1924-06-02,360.0
1924-06-03,442.0
1924-06-04,589.0
1924-06-05,616.0
1924-06-06,668.0
1924-06-07,657.0
1924-06-08,562.0
1924-06-09,475.0
1924-06-10,442.0
1924-06-11,421.0
1924-06-12,463.0
1924-06-13,479.0
1924-06-14,482.0
1924-06-15,442.0
1924-06-16,388.0
1924-06-17,343.0
1924-06-18,295.0
1924-06-19,250.0
1924-06-20,223.0
1924-06-21,199.0
1924-06-22,176.0
1924-06-23,166.0
1924-06-24,157.0
1924-06-25,148.0
1924-06-26,141.0
1924-06-27,133.0
1924-06-28,126.0
1924-06-29,119.0
1924-06-30,113.0
1924-07-01,110.0
1924-07-02,106.0
1924-07-03,102.0
1924-07-04,98.0
1924-07-05,92.0
1924-07-06,88.0
1924-07-07,80.0
1924-07-08,78.0
1924-07-09,75.0
1924-07-10,89.0
1924-07-11,92.0
1924-07-12,75.0
1924-07-13,69.0
1924-07-14,60.0
1924-07-15,60.0
1924-07-16,55.0
1924-07-17,55.0
1924-07-18,53.0
1924-07-19,51.0
1924-07-20,47.0
1924-07-21,46.0
1924-07-22,44.0
1924-07-23,41.0
1924-07-24,40.0
1924-07-25,39.0
1924-07-26,41.0
1924-07-27,41.0
1924-07-28,57.0
1924-07-29,53.0
1924-07-30,44.0
1924-07-31,42.0
1924-08-01,47.0
1924-08-02,38.0
1924-08-03,37.0
1924-08-04,36.0
1924-08-05,35.0
1924-08-06,34.0
1924-08-07,33.0
1924-08-08,30.0
1924-08-09,29.0
1924-08-10,28.0
1924-08-11,28.0
1924-08-12,28.0
1924-08-13,32.0
1924-08-14,38.0
1924-08-15,35.0
1924-08-16,30.0
1924-08-17,27.0
1924-08-18,25.0
1924-08-19,25.0
1924-08-20,23.0
1924-08-21,22.0
1924-08-22,22.0
1924-08-23,21.0
1924-08-24,20.0
1924-08-25,20.0
1924-08-26,20.0
1924-08-27,20.0
1924-08-28,20.0
1924-08-29,21.0
1924-08-30,20.0
1924-08-31,18.0
1924-09-01,18.0
1924-09-02,18.0
1924-09-03,18.0
1924-09-04,18.0
1924-09-05,16.0
1924-09-06,16.0
1924-09-07,19.0
1924-09-08,19.0
1924-09-09,20.0
1924-09-10,20.0
1924-09-11,19.0
1924-09-12,20.0
1924-09-13,20.0
1924-09-14,27.0
1924-09-15,33.0
1924-09-16,25.0
1924-09-17,21.0
1924-09-18,20.0
1924-09-19,19.0
1924-09-20,20.0
1924-09-21,18.0
1924-09-22,18.0
1924-09-23,18.0
1924-09-24,18.0
1924-09-25,18.0
1924-09-26,17.0
1924-09-27,18.0
1924-09-28,16.0
1924-09-29,17.0
1924-09-30,18.0
1924-10-01,17.0
1924-10-02,17.0
1924-10-03,17.0
1924-10-04,17.0
1924-10-05,18.0